,,,PA_Meas_PMT16A,,PR_Meas_QMR101_102,,RH_Meas_QMH101,,SR_Meas_QMS101,,TA_Meas_QMH101,,GenWind,,GenWind,
date,time,status,PA,status,PR,status,RH,status,SR,status,TA,status,DirAvg,status,SpdAvg,
2010-06-17, 00:00:05,VALID,1012.2,VALID,0,VALID,102.597,VALID,0,VALID,23.2831,VALID,212,VALID,0.641406,
2010-06-17, 00:01:05,VALID,1012.2,VALID,0,VALID,102.559,VALID,0,VALID,23.3238,VALID,201,VALID,0.719922,
2010-06-17, 00:02:05,VALID,1012.21,VALID,0,VALID,102.559,VALID,0,VALID,23.322,VALID,210,VALID,0.667188,
2010-06-17, 00:03:05,VALID,1012.22,VALID,0,VALID,102.544,VALID,0,VALID,23.3433,VALID,216,VALID,0.760156,
2010-06-17, 00:04:05,VALID,1012.21,VALID,0,VALID,102.528,VALID,0.105969,VALID,23.3415,VALID,231,VALID,0.648438,
2010-06-17, 00:05:05,VALID,1012.2,VALID,0,VALID,102.544,VALID,0.105969,VALID,23.3415,VALID,201,VALID,0.8,
2010-06-17, 00:06:05,VALID,1012.19,VALID,0,VALID,102.559,VALID,0.105969,VALID,23.3415,VALID,221,VALID,0.425391,
2010-06-17, 00:07:05,VALID,1012.21,VALID,0,VALID,102.559,VALID,0,VALID,23.361,VALID,223,VALID,0.291797,
2010-06-17, 00:08:05,VALID,1012.2,VALID,0,VALID,102.559,VALID,0.105969,VALID,23.3415,VALID,204,VALID,0.653125,
2010-06-17, 00:09:05,VALID,1012.18,VALID,0,VALID,102.521,VALID,0,VALID,23.3805,VALID,195,VALID,0,
2010-06-17, 00:10:05,VALID,1012.16,VALID,0,VALID,102.505,VALID,0,VALID,23.3805,VALID,195,VALID,0.0574219,
2010-06-17, 00:11:05,VALID,1012.16,VALID,0,VALID,102.49,VALID,0,VALID,23.4212,VALID,150,VALID,0.457031,
2010-06-17, 00:12:05,VALID,1012.16,VALID,0,VALID,102.498,VALID,0.105969,VALID,23.4212,VALID,113,VALID,0.581641,
2010-06-17, 00:13:05,VALID,1012.15,VALID,0,VALID,102.513,VALID,0.105969,VALID,23.4407,VALID,113,VALID,0.391016,
2010-06-17, 00:14:05,VALID,1012.18,VALID,0,VALID,102.513,VALID,0,VALID,23.4407,VALID,116,VALID,0.416406,
2010-06-17, 00:15:05,VALID,1012.17,VALID,0,VALID,102.505,VALID,0,VALID,23.4584,VALID,50,VALID,0.654688,
2010-06-17, 00:16:05,VALID,1012.15,VALID,0.5,VALID,102.505,VALID,0.105969,VALID,23.4602,VALID,25,VALID,0.652734,
2010-06-17, 00:17:05,VALID,1012.13,VALID,0,VALID,102.513,VALID,0,VALID,23.4194,VALID,52,VALID,0.982031,
2010-06-17, 00:18:05,VALID,1012.08,VALID,0.5,VALID,102.544,VALID,0.105969,VALID,23.3805,VALID,57,VALID,0.577734,
2010-06-17, 00:19:05,VALID,1012.08,VALID,0,VALID,102.536,VALID,0,VALID,23.3823,VALID,96,VALID,0.842188,
2010-06-17, 00:20:05,VALID,1012.06,VALID,0,VALID,102.528,VALID,0.105969,VALID,23.361,VALID,86,VALID,0.826172,
2010-06-17, 00:21:05,VALID,1012.04,VALID,0.5,VALID,102.505,VALID,0.105969,VALID,23.3823,VALID,90,VALID,0.596875,
2010-06-17, 00:22:05,VALID,1012,VALID,0,VALID,102.513,VALID,0.105969,VALID,23.361,VALID,91,VALID,0.707031,
2010-06-17, 00:23:05,VALID,1012,VALID,0,VALID,102.46,VALID,0,VALID,23.3805,VALID,91,VALID,0.66875,
2010-06-17, 00:24:05,VALID,1011.97,VALID,0,VALID,102.482,VALID,0.105969,VALID,23.3823,VALID,97,VALID,0.992969,
2010-06-17, 00:25:05,VALID,1011.96,VALID,0,VALID,102.46,VALID,0.105969,VALID,23.3805,VALID,116,VALID,0.541406,
2010-06-17, 00:26:05,VALID,1011.95,VALID,0,VALID,102.429,VALID,0.105969,VALID,23.4,VALID,136,VALID,0.753125,
2010-06-17, 00:27:05,VALID,1011.95,VALID,0,VALID,102.414,VALID,0.105969,VALID,23.4194,VALID,135,VALID,0.548047,
2010-06-17, 00:28:05,VALID,1011.94,VALID,0,VALID,102.399,VALID,0.105969,VALID,23.4194,VALID,149,VALID,0.828516,
2010-06-17, 00:29:05,VALID,1011.91,VALID,0,VALID,102.429,VALID,0.105969,VALID,23.4,VALID,163,VALID,0.741406,
2010-06-17, 00:30:05,VALID,1011.9,VALID,0,VALID,102.429,VALID,0.105969,VALID,23.3805,VALID,173,VALID,0.905078,
2010-06-17, 00:31:05,VALID,1011.89,VALID,0,VALID,102.414,VALID,0.105969,VALID,23.3787,VALID,165,VALID,0.74375,
2010-06-17, 00:32:05,VALID,1011.88,VALID,0,VALID,102.414,VALID,0.105969,VALID,23.4,VALID,161,VALID,0.662891,
2010-06-17, 00:33:05,VALID,1011.85,VALID,0,VALID,102.414,VALID,0.105969,VALID,23.3805,VALID,158,VALID,0.416406,
2010-06-17, 00:34:05,VALID,1011.84,VALID,0,VALID,102.383,VALID,0.105969,VALID,23.4,VALID,158,VALID,0.285156,
2010-06-17, 00:35:05,VALID,1011.82,VALID,0,VALID,102.353,VALID,0.105969,VALID,23.4,VALID,158,VALID,0.510156,
2010-06-17, 00:36:05,VALID,1011.78,VALID,0,VALID,102.345,VALID,0.105969,VALID,23.3982,VALID,158,VALID,0.462891,
2010-06-17, 00:37:05,VALID,1011.79,VALID,0,VALID,102.353,VALID,0.105969,VALID,23.4194,VALID,158,VALID,0.3625,
2010-06-17, 00:38:05,VALID,1011.77,VALID,0,VALID,102.345,VALID,0.211938,VALID,23.4194,VALID,158,VALID,0.188281,
2010-06-17, 00:39:05,VALID,1011.81,VALID,0,VALID,102.322,VALID,0.105969,VALID,23.4389,VALID,158,VALID,0,
2010-06-17, 00:40:05,VALID,1011.8,VALID,0,VALID,102.299,VALID,0.105969,VALID,23.4584,VALID,158,VALID,0,
2010-06-17, 00:41:05,VALID,1011.8,VALID,0,VALID,102.299,VALID,0.105969,VALID,23.4584,VALID,158,VALID,0,
2010-06-17, 00:42:05,VALID,1011.82,VALID,0,VALID,102.292,VALID,0.105969,VALID,23.4584,VALID,158,VALID,0,
2010-06-17, 00:43:05,VALID,1011.8,VALID,0,VALID,102.299,VALID,0.105969,VALID,23.4584,VALID,158,VALID,0,
2010-06-17, 00:44:05,VALID,1011.79,VALID,0,VALID,102.277,VALID,0.105969,VALID,23.4779,VALID,158,VALID,0,
2010-06-17, 00:45:05,VALID,1011.82,VALID,0,VALID,102.292,VALID,0.105969,VALID,23.4584,VALID,146,VALID,0,
2010-06-17, 00:46:05,VALID,1011.78,VALID,0,VALID,102.284,VALID,0.105969,VALID,23.4974,VALID,117,VALID,0.626953,
2010-06-17, 00:47:05,VALID,1011.8,VALID,0,VALID,102.231,VALID,0.105969,VALID,23.5169,VALID,119,VALID,0.567187,
2010-06-17, 00:48:05,VALID,1011.8,VALID,0,VALID,102.284,VALID,0,VALID,23.5399,VALID,118,VALID,0.621875,
2010-06-17, 00:49:05,VALID,1011.76,VALID,0,VALID,102.269,VALID,0,VALID,23.5186,VALID,119,VALID,0.645312,
2010-06-17, 00:50:05,VALID,1011.74,VALID,0,VALID,102.284,VALID,0,VALID,23.5381,VALID,116,VALID,0.105469,
2010-06-17, 00:51:05,VALID,1011.75,VALID,0,VALID,102.277,VALID,0,VALID,23.5381,VALID,115,VALID,0.337891,
2010-06-17, 00:52:05,VALID,1011.75,VALID,0,VALID,102.269,VALID,0,VALID,23.5594,VALID,38,VALID,0.564844,
2010-06-17, 00:53:05,VALID,1011.74,VALID,0,VALID,102.269,VALID,0,VALID,23.5381,VALID,39,VALID,0.614844,
2010-06-17, 00:54:05,VALID,1011.73,VALID,0,VALID,102.261,VALID,0,VALID,23.5186,VALID,23,VALID,0.554297,
2010-06-17, 00:55:05,VALID,1011.7,VALID,0,VALID,102.246,VALID,0,VALID,23.5186,VALID,23,VALID,0.585938,
2010-06-17, 00:56:05,VALID,1011.67,VALID,0,VALID,102.299,VALID,0,VALID,23.5204,VALID,36,VALID,0.537109,
2010-06-17, 00:57:05,VALID,1011.67,VALID,0,VALID,102.269,VALID,0,VALID,23.4992,VALID,33,VALID,0.725391,
2010-06-17, 00:58:05,VALID,1011.65,VALID,0,VALID,102.269,VALID,0,VALID,23.4992,VALID,30,VALID,0.535547,
2010-06-17, 00:59:05,VALID,1011.62,VALID,0,VALID,102.269,VALID,0,VALID,23.4797,VALID,43,VALID,0.494922,
2010-06-17, 01:00:05,VALID,1011.62,VALID,0,VALID,102.246,VALID,0,VALID,23.4992,VALID,43,VALID,0.438672,
2010-06-17, 01:01:05,VALID,1011.62,VALID,0,VALID,102.254,VALID,0,VALID,23.4992,VALID,27,VALID,0.322656,
2010-06-17, 01:02:05,VALID,1011.62,VALID,0,VALID,102.246,VALID,0,VALID,23.5204,VALID,27,VALID,0.241016,
2010-06-17, 01:03:05,VALID,1011.62,VALID,0,VALID,102.238,VALID,0,VALID,23.4992,VALID,27,VALID,0.323047,
2010-06-17, 01:04:05,VALID,1011.62,VALID,0,VALID,102.238,VALID,0,VALID,23.4992,VALID,39,VALID,0.486719,
2010-06-17, 01:05:05,VALID,1011.6,VALID,0,VALID,102.231,VALID,0,VALID,23.5399,VALID,54,VALID,0.48125,
2010-06-17, 01:06:05,VALID,1011.6,VALID,0,VALID,102.216,VALID,0,VALID,23.5186,VALID,54,VALID,0.332031,
2010-06-17, 01:07:05,VALID,1011.6,VALID,0,VALID,102.208,VALID,0,VALID,23.5186,VALID,77,VALID,0.570703,
2010-06-17, 01:08:05,VALID,1011.62,VALID,0,VALID,102.185,VALID,0,VALID,23.5186,VALID,90,VALID,0.330078,
2010-06-17, 01:09:05,VALID,1011.61,VALID,0,VALID,102.216,VALID,0,VALID,23.5186,VALID,90,VALID,0.532031,
2010-06-17, 01:10:05,VALID,1011.64,VALID,0,VALID,102.208,VALID,0,VALID,23.5186,VALID,90,VALID,0.396484,
2010-06-17, 01:11:05,VALID,1011.65,VALID,0,VALID,102.208,VALID,0,VALID,23.5186,VALID,92,VALID,0.557813,
2010-06-17, 01:12:05,VALID,1011.63,VALID,0,VALID,102.223,VALID,0,VALID,23.5381,VALID,101,VALID,0.388672,
2010-06-17, 01:13:05,VALID,1011.63,VALID,0,VALID,102.162,VALID,0,VALID,23.5576,VALID,101,VALID,0.517187,
2010-06-17, 01:14:05,VALID,1011.64,VALID,0,VALID,102.177,VALID,0,VALID,23.5576,VALID,119,VALID,0.867969,
2010-06-17, 01:15:05,VALID,1011.64,VALID,0,VALID,102.185,VALID,0,VALID,23.5771,VALID,139,VALID,1.09766,
2010-06-17, 01:16:05,VALID,1011.61,VALID,0,VALID,102.216,VALID,0,VALID,23.5381,VALID,140,VALID,0.894922,
2010-06-17, 01:17:05,VALID,1011.62,VALID,0,VALID,102.238,VALID,0.105969,VALID,23.5186,VALID,135,VALID,1.01641,
2010-06-17, 01:18:05,VALID,1011.62,VALID,0,VALID,102.261,VALID,0,VALID,23.5186,VALID,132,VALID,0.737891,
2010-06-17, 01:19:05,VALID,1011.6,VALID,0,VALID,102.254,VALID,0,VALID,23.4992,VALID,131,VALID,1.04141,
2010-06-17, 01:20:05,VALID,1011.62,VALID,0,VALID,102.269,VALID,0,VALID,23.4602,VALID,130,VALID,0.975391,
2010-06-17, 01:21:05,VALID,1011.6,VALID,0,VALID,102.254,VALID,0,VALID,23.5204,VALID,129,VALID,0.843359,
2010-06-17, 01:22:05,VALID,1011.61,VALID,0,VALID,102.231,VALID,0,VALID,23.5186,VALID,132,VALID,0.291406,
2010-06-17, 01:23:05,VALID,1011.58,VALID,0.5,VALID,102.231,VALID,0,VALID,23.4797,VALID,123,VALID,0.787109,
2010-06-17, 01:24:05,VALID,1011.56,VALID,0,VALID,102.254,VALID,0,VALID,23.4797,VALID,131,VALID,0.839453,
2010-06-17, 01:25:05,VALID,1011.53,VALID,0,VALID,102.216,VALID,0,VALID,23.4992,VALID,137,VALID,0.581641,
2010-06-17, 01:26:05,VALID,1011.53,VALID,0,VALID,102.2,VALID,0,VALID,23.5186,VALID,147,VALID,1.06719,
2010-06-17, 01:27:05,VALID,1011.53,VALID,0,VALID,102.223,VALID,0,VALID,23.4992,VALID,136,VALID,0.8625,
2010-06-17, 01:28:05,VALID,1011.51,VALID,0,VALID,102.223,VALID,0,VALID,23.5204,VALID,153,VALID,0.973828,
2010-06-17, 01:29:05,VALID,1011.5,VALID,0,VALID,102.208,VALID,0,VALID,23.4992,VALID,145,VALID,1.06445,
2010-06-17, 01:30:05,VALID,1011.49,VALID,0,VALID,102.185,VALID,0,VALID,23.5186,VALID,131,VALID,0.590625,
2010-06-17, 01:31:05,VALID,1011.48,VALID,0,VALID,102.185,VALID,0,VALID,23.5186,VALID,153,VALID,0.918359,
2010-06-17, 01:32:05,VALID,1011.46,VALID,0.5,VALID,102.193,VALID,0,VALID,23.5186,VALID,158,VALID,1.06016,
2010-06-17, 01:33:05,VALID,1011.44,VALID,0,VALID,102.185,VALID,0,VALID,23.5186,VALID,154,VALID,0.944531,
2010-06-17, 01:34:05,VALID,1011.4,VALID,0,VALID,102.17,VALID,0,VALID,23.4992,VALID,152,VALID,1.34453,
2010-06-17, 01:35:05,VALID,1011.37,VALID,0,VALID,102.185,VALID,0,VALID,23.5186,VALID,165,VALID,1.30508,
2010-06-17, 01:36:05,VALID,1011.36,VALID,0,VALID,102.17,VALID,0,VALID,23.5186,VALID,158,VALID,1.33828,
2010-06-17, 01:37:05,VALID,1011.33,VALID,0,VALID,102.177,VALID,0,VALID,23.4992,VALID,160,VALID,1.65781,
2010-06-17, 01:38:05,VALID,1011.3,VALID,0.5,VALID,102.177,VALID,0,VALID,23.5204,VALID,158,VALID,1.62266,
2010-06-17, 01:39:05,VALID,1011.32,VALID,0,VALID,102.177,VALID,0,VALID,23.4992,VALID,178,VALID,1.3668,
2010-06-17, 01:40:05,VALID,1011.34,VALID,0,VALID,102.208,VALID,0,VALID,23.4992,VALID,167,VALID,0.645703,
2010-06-17, 01:41:05,VALID,1011.34,VALID,0,VALID,102.162,VALID,0,VALID,23.4992,VALID,160,VALID,1.39648,
2010-06-17, 01:42:05,VALID,1011.35,VALID,0,VALID,102.193,VALID,0,VALID,23.4797,VALID,155,VALID,1.25781,
2010-06-17, 01:43:05,VALID,1011.34,VALID,0,VALID,102.193,VALID,0,VALID,23.4602,VALID,141,VALID,0.851172,
2010-06-17, 01:44:05,VALID,1011.35,VALID,0,VALID,102.177,VALID,0,VALID,23.4797,VALID,190,VALID,1.05938,
2010-06-17, 01:45:05,VALID,1011.37,VALID,0,VALID,102.193,VALID,0,VALID,23.4602,VALID,173,VALID,0.839844,
2010-06-17, 01:46:05,VALID,1011.34,VALID,0,VALID,102.185,VALID,0,VALID,23.4602,VALID,163,VALID,1.11406,
2010-06-17, 01:47:05,VALID,1011.31,VALID,0,VALID,102.216,VALID,0,VALID,23.4212,VALID,152,VALID,0.989844,
2010-06-17, 01:48:05,VALID,1011.3,VALID,0,VALID,102.223,VALID,0,VALID,23.4212,VALID,167,VALID,1.60625,
2010-06-17, 01:49:05,VALID,1011.31,VALID,0,VALID,102.193,VALID,0,VALID,23.4212,VALID,171,VALID,0.959766,
2010-06-17, 01:50:05,VALID,1011.28,VALID,0,VALID,102.2,VALID,0,VALID,23.4212,VALID,188,VALID,0.925391,
2010-06-17, 01:51:05,VALID,1011.25,VALID,0,VALID,102.2,VALID,0,VALID,23.4017,VALID,190,VALID,1.22812,
2010-06-17, 01:52:05,VALID,1011.29,VALID,0,VALID,102.193,VALID,0,VALID,23.423,VALID,172,VALID,0.755469,
2010-06-17, 01:53:05,VALID,1011.27,VALID,0,VALID,102.193,VALID,0,VALID,23.4212,VALID,177,VALID,0.848828,
2010-06-17, 01:54:05,VALID,1011.28,VALID,0,VALID,102.185,VALID,0,VALID,23.4017,VALID,164,VALID,1.04023,
2010-06-17, 01:55:04,VALID,1011.27,VALID,0,VALID,102.17,VALID,0,VALID,23.4212,VALID,175,VALID,1.21563,
2010-06-17, 01:56:04,VALID,1011.28,VALID,0.5,VALID,102.139,VALID,0,VALID,23.4212,VALID,181,VALID,0.755469,
2010-06-17, 01:57:04,VALID,1011.31,VALID,0,VALID,102.155,VALID,0,VALID,23.4425,VALID,175,VALID,0.623828,
2010-06-17, 01:58:04,VALID,1011.32,VALID,0,VALID,102.147,VALID,0,VALID,23.4407,VALID,170,VALID,1.1168,
2010-06-17, 01:59:04,VALID,1011.35,VALID,0,VALID,102.139,VALID,0,VALID,23.4602,VALID,187,VALID,0.476563,
2010-06-17, 02:00:04,VALID,1011.34,VALID,0,VALID,102.109,VALID,0,VALID,23.4602,VALID,183,VALID,1.00664,
2010-06-17, 02:01:04,VALID,1011.35,VALID,0,VALID,102.116,VALID,0,VALID,23.4797,VALID,169,VALID,1.15742,
2010-06-17, 02:02:04,VALID,1011.34,VALID,0,VALID,102.116,VALID,0,VALID,23.4797,VALID,191,VALID,1.71133,
2010-06-17, 02:03:04,VALID,1011.37,VALID,0,VALID,102.094,VALID,0.105969,VALID,23.4974,VALID,192,VALID,0.939844,
2010-06-17, 02:04:04,VALID,1011.35,VALID,0,VALID,102.078,VALID,0.105969,VALID,23.5169,VALID,163,VALID,1.20313,
2010-06-17, 02:05:04,VALID,1011.34,VALID,0.5,VALID,102.071,VALID,0.105969,VALID,23.5363,VALID,174,VALID,1.15586,
2010-06-17, 02:06:04,VALID,1011.31,VALID,0,VALID,102.078,VALID,0.105969,VALID,23.5363,VALID,176,VALID,1.80469,
2010-06-17, 02:07:04,VALID,1011.36,VALID,0,VALID,102.071,VALID,0.105969,VALID,23.5363,VALID,176,VALID,1.29922,
2010-06-17, 02:08:04,VALID,1011.37,VALID,0.5,VALID,102.063,VALID,0.105969,VALID,23.5753,VALID,189,VALID,0.791016,
2010-06-17, 02:09:04,VALID,1011.37,VALID,0,VALID,102.048,VALID,0.105969,VALID,23.5753,VALID,198,VALID,1.08828,
2010-06-17, 02:10:04,VALID,1011.37,VALID,0,VALID,102.071,VALID,0.105969,VALID,23.5753,VALID,192,VALID,2.20625,
2010-06-17, 02:11:04,VALID,1011.37,VALID,0.5,VALID,102.071,VALID,0.105969,VALID,23.5753,VALID,180,VALID,2.08437,
2010-06-17, 02:12:04,VALID,1011.39,VALID,0,VALID,102.071,VALID,0.105969,VALID,23.5753,VALID,191,VALID,1.98672,
2010-06-17, 02:13:04,VALID,1011.38,VALID,0.5,VALID,102.071,VALID,0.105969,VALID,23.5558,VALID,185,VALID,1.89727,
2010-06-17, 02:14:04,VALID,1011.4,VALID,0,VALID,102.086,VALID,0.105969,VALID,23.5753,VALID,199,VALID,1.98828,
2010-06-17, 02:15:04,VALID,1011.37,VALID,0,VALID,102.063,VALID,0.105969,VALID,23.5753,VALID,198,VALID,1.79805,
2010-06-17, 02:16:04,VALID,1011.39,VALID,0,VALID,102.055,VALID,0.105969,VALID,23.5948,VALID,190,VALID,1.58047,
2010-06-17, 02:17:04,VALID,1011.43,VALID,0.5,VALID,102.048,VALID,0.105969,VALID,23.5753,VALID,168,VALID,1.58633,
2010-06-17, 02:18:04,VALID,1011.4,VALID,0,VALID,102.048,VALID,0,VALID,23.5966,VALID,182,VALID,1.77617,
2010-06-17, 02:19:04,VALID,1011.41,VALID,0,VALID,102.033,VALID,0,VALID,23.6179,VALID,186,VALID,1.625,
2010-06-17, 02:20:04,VALID,1011.45,VALID,0,VALID,102.017,VALID,0,VALID,23.5966,VALID,170,VALID,1.18047,
2010-06-17, 02:21:04,VALID,1011.44,VALID,0,VALID,101.994,VALID,0,VALID,23.6373,VALID,191,VALID,1.81016,
2010-06-17, 02:22:04,VALID,1011.46,VALID,0.5,VALID,102.002,VALID,0,VALID,23.6356,VALID,188,VALID,1.32305,
2010-06-17, 02:23:04,VALID,1011.44,VALID,0,VALID,101.987,VALID,0,VALID,23.655,VALID,181,VALID,1.5957,
2010-06-17, 02:24:04,VALID,1011.46,VALID,0,VALID,101.987,VALID,0,VALID,23.6958,VALID,176,VALID,2.00039,
2010-06-17, 02:25:04,VALID,1011.49,VALID,0,VALID,101.964,VALID,0,VALID,23.6745,VALID,193,VALID,1.60586,
2010-06-17, 02:26:04,VALID,1011.46,VALID,0,VALID,102.01,VALID,0,VALID,23.6745,VALID,183,VALID,2.25625,
2010-06-17, 02:27:04,VALID,1011.46,VALID,0,VALID,102.055,VALID,0,VALID,23.6161,VALID,196,VALID,1.62109,
2010-06-17, 02:28:04,VALID,1011.46,VALID,0,VALID,102.048,VALID,0,VALID,23.6161,VALID,187,VALID,2.17188,
2010-06-17, 02:29:04,VALID,1011.45,VALID,0,VALID,102.109,VALID,0,VALID,23.5789,VALID,176,VALID,3.16797,
2010-06-17, 02:30:04,VALID,1011.45,VALID,0.5,VALID,102.132,VALID,0,VALID,23.5381,VALID,173,VALID,2.04922,
2010-06-17, 02:31:04,VALID,1011.45,VALID,0,VALID,102.17,VALID,0,VALID,23.5399,VALID,200,VALID,1.90586,
2010-06-17, 02:32:04,VALID,1011.46,VALID,0,VALID,102.177,VALID,0,VALID,23.4992,VALID,176,VALID,2.27266,
2010-06-17, 02:33:04,VALID,1011.44,VALID,0,VALID,102.208,VALID,0,VALID,23.462,VALID,193,VALID,1.86563,
2010-06-17, 02:34:04,VALID,1011.44,VALID,0,VALID,102.17,VALID,0,VALID,23.4815,VALID,201,VALID,1.08008,
2010-06-17, 02:35:04,VALID,1011.45,VALID,0,VALID,102.147,VALID,0,VALID,23.4602,VALID,182,VALID,0.987109,
2010-06-17, 02:36:04,VALID,1011.39,VALID,0,VALID,102.155,VALID,0,VALID,23.4407,VALID,192,VALID,2.52266,
2010-06-17, 02:37:04,VALID,1011.38,VALID,0,VALID,102.231,VALID,0,VALID,23.3628,VALID,193,VALID,2.01914,
2010-06-17, 02:38:04,VALID,1011.34,VALID,0,VALID,102.246,VALID,0,VALID,23.3628,VALID,186,VALID,2.40859,
2010-06-17, 02:39:04,VALID,1011.33,VALID,0,VALID,102.223,VALID,0,VALID,23.3628,VALID,198,VALID,1.66094,
2010-06-17, 02:40:04,VALID,1011.3,VALID,0,VALID,102.208,VALID,0,VALID,23.3628,VALID,177,VALID,1.56562,
2010-06-17, 02:41:04,VALID,1011.28,VALID,0,VALID,102.223,VALID,0,VALID,23.3238,VALID,177,VALID,2.75703,
2010-06-17, 02:42:04,VALID,1011.31,VALID,0,VALID,102.223,VALID,0,VALID,23.3256,VALID,206,VALID,1.00664,
2010-06-17, 02:43:04,VALID,1011.25,VALID,0,VALID,102.246,VALID,0,VALID,23.2848,VALID,205,VALID,2.59258,
2010-06-17, 02:44:04,VALID,1011.27,VALID,0.5,VALID,102.261,VALID,0,VALID,23.2848,VALID,192,VALID,1.70313,
2010-06-17, 02:45:04,VALID,1011.29,VALID,0,VALID,102.269,VALID,0,VALID,23.2654,VALID,182,VALID,1.96758,
2010-06-17, 02:46:04,VALID,1011.29,VALID,0,VALID,102.246,VALID,0,VALID,23.2866,VALID,209,VALID,1.90547,
2010-06-17, 02:47:04,VALID,1011.33,VALID,0,VALID,102.246,VALID,0,VALID,23.2654,VALID,193,VALID,1.13828,
2010-06-17, 02:48:04,VALID,1011.33,VALID,0,VALID,102.261,VALID,0.105969,VALID,23.2848,VALID,190,VALID,1.18242,
2010-06-17, 02:49:04,VALID,1011.37,VALID,0,VALID,102.231,VALID,0.105969,VALID,23.2831,VALID,175,VALID,0.750391,
2010-06-17, 02:50:04,VALID,1011.39,VALID,0,VALID,102.238,VALID,0.105969,VALID,23.2636,VALID,189,VALID,1.26953,
2010-06-17, 02:51:04,VALID,1011.41,VALID,0,VALID,102.254,VALID,0.105969,VALID,23.2636,VALID,199,VALID,1.19297,
2010-06-17, 02:52:04,VALID,1011.39,VALID,0,VALID,102.284,VALID,0.105969,VALID,23.2654,VALID,205,VALID,2.01016,
2010-06-17, 02:53:04,VALID,1011.4,VALID,0,VALID,102.277,VALID,0.105969,VALID,23.2441,VALID,206,VALID,1.0707,
2010-06-17, 02:54:04,VALID,1011.4,VALID,0,VALID,102.277,VALID,0.105969,VALID,23.2654,VALID,220,VALID,1.67656,
2010-06-17, 02:55:04,VALID,1011.42,VALID,0,VALID,102.269,VALID,0.105969,VALID,23.2654,VALID,190,VALID,1.32734,
2010-06-17, 02:56:04,VALID,1011.41,VALID,0,VALID,102.261,VALID,0.105969,VALID,23.2654,VALID,204,VALID,0.869141,
2010-06-17, 02:57:04,VALID,1011.43,VALID,0.5,VALID,102.238,VALID,0.105969,VALID,23.2654,VALID,207,VALID,0.899219,
2010-06-17, 02:58:04,VALID,1011.44,VALID,0,VALID,102.299,VALID,0,VALID,23.2264,VALID,190,VALID,1.99766,
2010-06-17, 02:59:04,VALID,1011.44,VALID,0,VALID,102.277,VALID,0.105969,VALID,23.2459,VALID,206,VALID,1.39141,
2010-06-17, 03:00:04,VALID,1011.45,VALID,0,VALID,102.261,VALID,0.105969,VALID,23.2459,VALID,193,VALID,1.35156,
2010-06-17, 03:01:04,VALID,1011.44,VALID,0,VALID,102.292,VALID,0.105969,VALID,23.2246,VALID,209,VALID,2.14297,
2010-06-17, 03:02:04,VALID,1011.42,VALID,0,VALID,102.307,VALID,0.105969,VALID,23.2264,VALID,189,VALID,1.56875,
2010-06-17, 03:03:04,VALID,1011.45,VALID,0,VALID,102.322,VALID,0,VALID,23.2069,VALID,211,VALID,1.43789,
2010-06-17, 03:04:04,VALID,1011.43,VALID,0.5,VALID,102.307,VALID,0.105969,VALID,23.1857,VALID,198,VALID,1.925,
2010-06-17, 03:05:04,VALID,1011.43,VALID,0,VALID,102.315,VALID,0.105969,VALID,23.1857,VALID,191,VALID,1.62461,
2010-06-17, 03:06:04,VALID,1011.41,VALID,0,VALID,102.338,VALID,0,VALID,23.1662,VALID,174,VALID,2.30859,
2010-06-17, 03:07:04,VALID,1011.41,VALID,0,VALID,102.322,VALID,0,VALID,23.1662,VALID,194,VALID,1.3918,
2010-06-17, 03:08:04,VALID,1011.44,VALID,0,VALID,102.33,VALID,0.105969,VALID,23.1662,VALID,218,VALID,1.71914,
2010-06-17, 03:09:04,VALID,1011.41,VALID,0,VALID,102.33,VALID,0.105969,VALID,23.1467,VALID,198,VALID,2.61875,
2010-06-17, 03:10:04,VALID,1011.44,VALID,0,VALID,102.353,VALID,0.105969,VALID,23.1662,VALID,183,VALID,1.42227,
2010-06-17, 03:11:04,VALID,1011.43,VALID,0.5,VALID,102.345,VALID,0.105969,VALID,23.1662,VALID,191,VALID,1.27695,
2010-06-17, 03:12:04,VALID,1011.41,VALID,0,VALID,102.315,VALID,0.105969,VALID,23.1857,VALID,193,VALID,0.924219,
2010-06-17, 03:13:04,VALID,1011.43,VALID,0,VALID,102.33,VALID,0.105969,VALID,23.1662,VALID,204,VALID,1.58789,
2010-06-17, 03:14:04,VALID,1011.39,VALID,0,VALID,102.383,VALID,0.105969,VALID,23.1485,VALID,199,VALID,2.60039,
2010-06-17, 03:15:04,VALID,1011.38,VALID,0,VALID,102.353,VALID,0.105969,VALID,23.1272,VALID,208,VALID,1.73711,
2010-06-17, 03:16:04,VALID,1011.41,VALID,0,VALID,102.36,VALID,0.105969,VALID,23.1272,VALID,200,VALID,1.79062,
2010-06-17, 03:17:04,VALID,1011.4,VALID,0,VALID,102.353,VALID,0.105969,VALID,23.1272,VALID,192,VALID,1.3625,
2010-06-17, 03:18:04,VALID,1011.39,VALID,0,VALID,102.368,VALID,0.105969,VALID,23.1077,VALID,194,VALID,1.66836,
2010-06-17, 03:19:04,VALID,1011.42,VALID,0,VALID,102.383,VALID,0.105969,VALID,23.0883,VALID,186,VALID,0.919531,
2010-06-17, 03:20:04,VALID,1011.4,VALID,0.5,VALID,102.376,VALID,0.105969,VALID,23.0883,VALID,204,VALID,0.723047,
2010-06-17, 03:21:04,VALID,1011.45,VALID,0,VALID,102.36,VALID,0.105969,VALID,23.0883,VALID,223,VALID,0.923828,
2010-06-17, 03:22:04,VALID,1011.5,VALID,0,VALID,102.36,VALID,0.105969,VALID,23.0883,VALID,198,VALID,1.70859,
2010-06-17, 03:23:04,VALID,1011.47,VALID,0,VALID,102.391,VALID,0,VALID,23.0688,VALID,219,VALID,2.46563,
2010-06-17, 03:24:04,VALID,1011.48,VALID,0,VALID,102.406,VALID,0,VALID,23.0511,VALID,190,VALID,2.41484,
2010-06-17, 03:25:04,VALID,1011.47,VALID,0,VALID,102.406,VALID,0.105969,VALID,23.0298,VALID,207,VALID,1.35742,
2010-06-17, 03:26:04,VALID,1011.48,VALID,0,VALID,102.399,VALID,0.105969,VALID,23.0493,VALID,210,VALID,0.983203,
2010-06-17, 03:27:04,VALID,1011.47,VALID,0,VALID,102.383,VALID,0,VALID,23.0298,VALID,211,VALID,1.00312,
2010-06-17, 03:28:04,VALID,1011.47,VALID,0,VALID,102.376,VALID,0.105969,VALID,23.0298,VALID,189,VALID,1.775,
2010-06-17, 03:29:04,VALID,1011.44,VALID,0,VALID,102.376,VALID,0.105969,VALID,23.0298,VALID,204,VALID,1.18398,
2010-06-17, 03:30:04,VALID,1011.43,VALID,0,VALID,102.383,VALID,0.105969,VALID,23.0103,VALID,205,VALID,2.27109,
2010-06-17, 03:31:04,VALID,1011.42,VALID,0.5,VALID,102.399,VALID,0,VALID,23.0138,VALID,197,VALID,2.96406,
2010-06-17, 03:32:04,VALID,1011.41,VALID,0,VALID,102.376,VALID,0,VALID,23.0121,VALID,192,VALID,1.82109,
2010-06-17, 03:33:04,VALID,1011.42,VALID,0,VALID,102.391,VALID,0.105969,VALID,22.9909,VALID,211,VALID,1.57344,
2010-06-17, 03:34:04,VALID,1011.46,VALID,0,VALID,102.391,VALID,0,VALID,23.0121,VALID,209,VALID,1.41914,
2010-06-17, 03:35:04,VALID,1011.47,VALID,0,VALID,102.368,VALID,0,VALID,23.0103,VALID,211,VALID,1.66797,
2010-06-17, 03:36:04,VALID,1011.5,VALID,0,VALID,102.376,VALID,0.105969,VALID,23.0121,VALID,217,VALID,2.05273,
2010-06-17, 03:37:04,VALID,1011.52,VALID,0,VALID,102.383,VALID,0.105969,VALID,23.0103,VALID,189,VALID,1.78828,
2010-06-17, 03:38:04,VALID,1011.51,VALID,0,VALID,102.399,VALID,0.105969,VALID,22.9909,VALID,209,VALID,1.72852,
2010-06-17, 03:39:04,VALID,1011.51,VALID,0,VALID,102.414,VALID,0,VALID,22.9909,VALID,217,VALID,2.6332,